Soldotna, AK

2:14 AM AKST on February 12, 2016 (GMT -0900)
Soldotna

Weather History for PASX - May, 2014

Change the Weather History Date:

Thursday, May 29, 2014

  Actual Average Record
Temperature  
Mean Temperature 48 °F -  
Max Temperature 55 °F 56 °F 74 °F (1963)
Min Temperature 42 °F 39 °F 31 °F (1986)
Degree Days  
Heating Degree Days 16    
Moisture  
Dew Point 41 °F    
Average Humidity 73    
Maximum Humidity 93    
Minimum Humidity 54    
Precipitation  
Precipitation 0.00 in - - ()
Sea Level Pressure  
Sea Level Pressure 29.94 in    
Wind  
Wind Speed 2 mph (ENE)    
Max Wind Speed 8 mph    
Max Gust Speed -    
Visibility 10 miles    
Events      
Averages and records for this station are not official NWS values.
T = Trace of Precipitation, MM = Missing Value Source: NWS Daily Summary

Daily Weather History Graph

Daily Weather History Graph

Search for Another Location

Airport or City:

Trip Planner

Search our weather history database for the weather conditions in past years. The results will help you decide how hot, cold, wet, or windy it might be!

Date:

Astronomy

May. 29, 2014 Rise Set
Actual Time 4:53 AM AKDT 11:11 PM AKDT
Civil Twilight 3:28 AM AKDT 12:37 AM AKDT
Nautical Twilight Sun does not rise Sun does not rise
Astronomical Twilight Sun does not rise Sun does not rise
Moon 6:16 AM AKDT (5/29) 11:48 PM AKDT (5/29)
Length of Visible Light 21h 09m
Length of Day
18h 18m
New Moon, 1% of the Moon is Illuminated
May 29
New Moon
Jun 5
First Quarter
Jun 12
Full
Jun 19
Last Quarter
Jun 27
New

Hourly Weather History & Observations

Time (AKDT) Temp. Windchill Dew Point Humidity Pressure Visibility Wind Dir Wind Speed Gust Speed Precip Events Conditions
12:16 AM 46.4 °F - 42.8 °F 87% 30.08 in 10.0 mi Calm Calm - N/A   Overcast
12:36 AM 46.4 °F - 42.8 °F 87% 30.07 in 10.0 mi Calm Calm - N/A   Overcast
12:56 AM 46.4 °F - 42.8 °F 87% 30.08 in 10.0 mi Calm Calm - N/A   Overcast
1:16 AM 46.4 °F - 42.8 °F 87% 30.07 in 10.0 mi Calm Calm - N/A   Overcast
1:36 AM 46.4 °F - 42.8 °F 87% 30.08 in 10.0 mi Calm Calm - N/A   Overcast
1:56 AM 44.6 °F - 41.0 °F 87% 30.07 in 10.0 mi Calm Calm - N/A   Overcast
2:16 AM 44.6 °F - 42.8 °F 93% 30.07 in 10.0 mi Calm Calm - N/A   Overcast
2:36 AM 44.6 °F - 41.0 °F 87% 30.06 in 10.0 mi Calm Calm - N/A   Overcast
2:56 AM 44.6 °F - 41.0 °F 87% 30.06 in 10.0 mi Calm Calm - N/A   Overcast
3:16 AM 44.6 °F - 41.0 °F 87% 30.05 in 10.0 mi Calm Calm - N/A   Overcast
3:36 AM 44.6 °F - 41.0 °F 87% 30.05 in 10.0 mi Calm Calm - N/A   Overcast
3:56 AM 44.6 °F - 39.2 °F 81% 30.04 in 10.0 mi Calm Calm - N/A   Overcast
4:16 AM 44.6 °F - 39.2 °F 81% 30.04 in 10.0 mi Calm Calm - N/A   Overcast
4:36 AM 44.6 °F - 41.0 °F 87% 30.03 in 10.0 mi Calm Calm - N/A   Overcast
4:56 AM 44.6 °F - 39.2 °F 81% 30.03 in 10.0 mi Calm Calm - N/A   Overcast
5:16 AM 44.6 °F - 41.0 °F 87% 30.03 in 10.0 mi Calm Calm - N/A   Overcast
5:36 AM 42.8 °F 41.1 °F 39.2 °F 87% 30.02 in 10.0 mi East 3.5 mph - N/A   Overcast
5:56 AM 44.6 °F - 39.2 °F 81% 30.02 in 10.0 mi Calm Calm - N/A   Overcast
6:16 AM 44.6 °F - 39.2 °F 81% 30.02 in 10.0 mi Calm Calm - N/A   Overcast
6:36 AM 44.6 °F - 41.0 °F 87% 30.01 in 10.0 mi Calm Calm - N/A   Overcast
6:56 AM 44.6 °F - 41.0 °F 87% 30.01 in 10.0 mi Calm Calm - N/A   Overcast
7:16 AM 44.6 °F - 41.0 °F 87% 30.00 in 10.0 mi Calm Calm - N/A   Overcast
7:36 AM 44.6 °F - 42.8 °F 93% 30.00 in 10.0 mi Calm Calm - N/A   Overcast
7:56 AM 46.4 °F - 42.8 °F 87% 30.00 in 10.0 mi Calm Calm - N/A   Overcast
8:16 AM - - - N/A% 30.00 in 10.0 mi Calm Calm - N/A   Overcast
8:36 AM - - - N/A% 29.99 in 10.0 mi Calm Calm - N/A   Overcast
8:56 AM 46.4 °F - 42.8 °F 87% 30.00 in 10.0 mi Calm Calm - N/A   Overcast
9:16 AM 48.2 °F - 42.8 °F 82% 29.99 in 10.0 mi East 3.5 mph - N/A   Overcast
9:36 AM 48.2 °F - 42.8 °F 82% 29.98 in 10.0 mi Calm Calm - N/A   Overcast
9:56 AM 48.2 °F - 44.6 °F 87% 29.97 in 10.0 mi Calm Calm - N/A   Overcast
10:16 AM 50.0 °F - 44.6 °F 82% 29.97 in 10.0 mi East 3.5 mph - N/A   Overcast
10:36 AM 51.8 °F - 42.8 °F 71% 29.96 in 10.0 mi East 5.8 mph - N/A   Overcast
10:56 AM 51.8 °F - 42.8 °F 71% 29.95 in 10.0 mi East 4.6 mph - N/A   Mostly Cloudy
11:16 AM 53.6 °F - 42.8 °F 67% 29.95 in 10.0 mi Calm Calm - N/A   Mostly Cloudy
11:36 AM 53.6 °F - 42.8 °F 67% 29.94 in 10.0 mi ENE 4.6 mph - N/A   Mostly Cloudy
11:56 AM 55.4 °F - 41.0 °F 58% 29.94 in 10.0 mi East 6.9 mph - N/A   Overcast
12:16 PM 55.4 °F - 41.0 °F 58% 29.93 in 10.0 mi East 5.8 mph - N/A   Overcast
12:36 PM - - - N/A% 29.92 in 10.0 mi East 8.1 mph - N/A   Overcast
1:16 PM 55.4 °F - 41.0 °F 58% 29.92 in 10.0 mi East 8.1 mph - N/A   Overcast
1:36 PM 53.6 °F - 41.0 °F 62% 29.92 in 10.0 mi East 5.8 mph - N/A   Overcast
1:56 PM 53.6 °F - 42.8 °F 67% 29.92 in 10.0 mi East 3.5 mph - N/A   Overcast
2:16 PM 53.6 °F - 42.8 °F 67% 29.92 in 10.0 mi NE 4.6 mph - N/A   Overcast
2:36 PM 53.6 °F - 42.8 °F 67% 29.91 in 10.0 mi ENE 6.9 mph - N/A   Overcast
2:56 PM 53.6 °F - 42.8 °F 67% 29.90 in 10.0 mi ENE 4.6 mph - N/A   Overcast
3:16 PM 53.6 °F - 42.8 °F 67% 29.90 in 10.0 mi East 5.8 mph - N/A   Overcast
3:36 PM 55.4 °F - 41.0 °F 58% 29.89 in 10.0 mi East 5.8 mph - N/A   Overcast
3:56 PM 55.4 °F - 41.0 °F 58% 29.88 in 10.0 mi East 6.9 mph - N/A   Overcast
4:16 PM 55.4 °F - 39.2 °F 54% 29.88 in 10.0 mi East 4.6 mph - N/A   Overcast
4:36 PM 55.4 °F - 41.0 °F 58% 29.88 in 10.0 mi East 3.5 mph - N/A   Overcast
4:56 PM 55.4 °F - 39.2 °F 54% 29.87 in 10.0 mi East 6.9 mph - N/A   Overcast
5:16 PM 55.4 °F - 41.0 °F 58% 29.86 in 10.0 mi ENE 4.6 mph - N/A   Overcast
5:36 PM 55.4 °F - 39.2 °F 54% 29.86 in 10.0 mi Calm Calm - N/A   Overcast
5:56 PM 55.4 °F - 41.0 °F 58% 29.85 in 10.0 mi Calm Calm - N/A   Overcast
6:16 PM - - - N/A% 29.84 in 10.0 mi WNW 8.1 mph - N/A   Overcast
6:36 PM 55.4 °F - 42.8 °F 63% 29.84 in 10.0 mi West 6.9 mph - N/A   Overcast
6:56 PM - - - N/A% 29.83 in 10.0 mi WNW 8.1 mph - N/A   Overcast
7:16 PM - - - N/A% 29.84 in 10.0 mi WNW 8.1 mph - N/A   Overcast
7:36 PM - - - N/A% 29.83 in 10.0 mi NW 5.8 mph - N/A   Overcast
7:56 PM 53.6 °F - 46.4 °F 77% 29.84 in 10.0 mi WNW 5.8 mph - N/A   Overcast
8:16 PM 53.6 °F - 44.6 °F 72% 29.83 in 10.0 mi WNW 5.8 mph - N/A   Overcast
8:36 PM 53.6 °F - 42.8 °F 67% 29.83 in 10.0 mi Calm Calm - N/A   Overcast
8:56 PM 55.4 °F - 41.0 °F 58% 29.83 in 10.0 mi NE 3.5 mph - N/A   Overcast
9:16 PM 53.6 °F - 39.2 °F 58% 29.83 in 10.0 mi Calm Calm - N/A   Overcast
9:36 PM 53.6 °F - 39.2 °F 58% 29.82 in 10.0 mi Calm Calm - N/A   Overcast
9:56 PM 53.6 °F - 39.2 °F 58% 29.83 in 10.0 mi Calm Calm - N/A   Overcast
10:16 PM 53.6 °F - 39.2 °F 58% 29.82 in 10.0 mi Calm Calm - N/A   Overcast
10:36 PM 53.6 °F - 39.2 °F 58% 29.82 in 10.0 mi East 3.5 mph - N/A   Overcast
10:56 PM 53.6 °F - 39.2 °F 58% 29.82 in 10.0 mi NE 4.6 mph - N/A   Overcast
11:16 PM 51.8 °F - 39.2 °F 62% 29.82 in 10.0 mi North 3.5 mph - N/A   Overcast
11:36 PM 51.8 °F - 39.2 °F 62% 29.82 in 10.0 mi NE 3.5 mph - N/A   Overcast
11:56 PM - - - N/A% 29.81 in 10.0 mi West 3.5 mph - N/A   Overcast